Theta_e
348 354 363 362 363 361 361 363 363 363 362 362 360 360 359 359 358 358 358 358 358 358 358 359 358 359 360 359 359 359 357 355 354 352 351 353 357 357 356 358 359 356 361
352 358 364 365 362 362 362 362 362 362 361 361 362 361 359 357 357 358 358 358 358 357 357 357 359 357 359 360 359 359 357 357 356 355 351 350 352 355 355 354 358 357 360
351 356 358 364 364 362 363 363 362 360 360 360 359 359 358 358 357 357 357 357 358 356 356 357 357 358 357 358 359 358 359 357 354 355 357 352 347 353 354 357 358 359 358
354 355 358 364 364 363 362 363 363 360 360 360 359 359 358 358 358 357 356 356 357 357 356 357 358 359 359 358 357 358 356 355 354 353 350 351 349 354 355 357 358 359 360
354 355 357 364 364 362 362 362 361 362 361 361 360 360 359 359 358 358 358 358 358 358 357 357 358 359 359 360 357 357 356 356 353 344 347 349 351 352 356 357 358 358 357
352 354 360 362 363 363 362 360 360 360 360 361 360 360 360 360 359 359 359 359 358 357 359 359 357 359 359 360 357 357 356 357 349 342 345 352 352 354 356 358 357 358 358
351 354 355 364 363 361 361 361 361 362 362 360 359 360 359 359 359 359 358 358 357 358 358 358 358 357 357 358 358 357 354 356 348 344 345 348 351 360 357 356 357 358 358
353 355 354 361 363 364 360 360 361 361 361 359 359 360 360 359 358 360 360 359 359 358 359 359 359 357 356 356 355 355 355 355 350 348 348 349 353 359 357 357 357 357 358
355 356 356 357 359 363 360 359 361 361 361 362 360 359 360 360 361 361 360 359 358 358 359 359 359 359 356 354 354 354 355 354 349 350 351 352 358 358 358 358 356 358 358
353 355 356 356 356 355 354 360 360 360 360 361 361 360 360 359 358 357 360 359 359 358 359 358 359 356 356 354 354 355 355 356 349 350 349 350 359 357 357 358 356 359 357
351 352 353 354 353 353 352 356 359 361 362 361 359 360 360 356 357 359 357 358 359 360 360 359 358 359 358 356 354 353 355 352 350 349 349 351 350 357 358 358 357 357 358
345 349 350 352 352 351 355 354 353 354 355 356 356 355 355 354 354 356 358 360 361 360 361 361 359 354 358 355 354 356 354 351 345 348 347 349 349 355 358 359 358 358 358
345 348 350 348 351 350 350 352 353 352 354 356 356 355 354 353 352 353 355 355 355 357 355 355 357 347 349 353 352 353 353 351 345 345 346 348 349 353 357 358 358 358 358
343 346 348 349 349 349 349 352 353 352 352 354 354 353 351 349 351 352 354 353 353 354 352 352 353 352 350 350 351 349 351 351 348 347 345 350 352 355 354 354 357 357 357
341 345 345 347 346 347 346 351 351 351 351 351 350 351 351 351 350 352 352 351 353 352 351 351 351 351 352 350 352 350 349 349 349 349 349 351 353 355 350 348 353 356 356
342 342 345 344 344 345 345 349 350 350 349 351 350 350 351 352 349 350 351 352 352 352 352 351 350 351 350 351 350 351 350 350 350 349 350 349 356 356 353 350 353 353 353
341 341 342 343 343 344 345 347 348 349 351 351 352 353 352 354 351 352 350 350 352 354 354 353 351 353 351 352 351 352 353 352 351 350 351 349 352 355 355 354 354 354 353
339 339 341 344 343 344 344 345 345 346 349 350 352 352 354 355 354 353 351 353 353 354 353 353 351 351 346 346 349 349 352 351 351 349 350 350 351 354 354 353 353 352 352
338 339 339 341 343 344 345 345 346 347 347 348 350 351 356 356 356 352 353 354 354 350 348 347 341 344 344 348 349 349 349 351 353 353 350 349 349 352 353 353 352 353 351
338 339 340 342 344 344 345 345 347 348 350 348 350 351 356 357 358 354 353 353 354 348 342 341 341 343 345 349 347 345 349 349 351 352 351 352 352 351 350 349 352 353 351
337 339 340 342 343 342 343 342 342 344 349 349 350 352 355 350 355 354 353 354 350 344 342 341 339 342 343 345 345 344 344 344 345 348 350 350 349 349 349 351 352 352 354
337 340 341 342 342 343 345 343 344 345 347 349 350 350 351 352 355 355 354 352 349 339 341 340 339 337 339 340 340 338 336 340 342 345 347 347 348 349 347 344 342 342 342
337 339 340 341 342 343 344 344 346 350 351 349 350 350 351 353 355 356 352 350 344 340 340 343 336 339 335 338 342 338 333 331 336 340 342 344 344 345 340 338 337 336 336
338 341 341 341 341 343 344 343 344 342 343 347 349 348 352 356 355 355 353 349 342 340 341 343 341 338 337 334 335 337 341 338 333 332 337 337 339 341 339 337 334 331 330
338 339 340 340 340 343 343 344 343 342 344 346 345 346 348 352 354 356 353 347 340 340 344 341 338 336 335 334 333 333 336 335 334 333 331 332 331 330 336 337 332 329 327
339 339 339 339 339 343 343 343 343 343 343 341 341 340 342 349 353 354 352 345 344 344 343 340 338 336 335 334 333 334 335 336 333 331 329 329 327 325 330 333 331 331 329
Wind_Speed
2 4 15 17 19 18 16 17 18 17 18 18 17 16 17 16 16 15 14 14 11 12 12 9 11 11 10 11 11 12 12 9 8 9 11 11 13 15 12 11 13 13 16
4 3 12 16 17 17 16 16 17 16 17 16 16 15 16 15 13 13 13 12 11 8 10 9 9 9 10 10 10 11 10 9 7 8 7 8 10 11 12 11 11 12 16
5 6 8 14 16 16 15 15 15 15 16 15 15 14 14 13 11 10 11 11 10 6 7 7 7 8 9 9 9 11 11 10 7 7 8 4 4 8 9 11 11 13 13
6 5 7 13 14 16 15 15 14 14 14 14 12 13 11 10 9 9 8 8 9 6 4 5 5 6 7 8 8 10 12 12 7 6 4 4 2 8 8 10 10 11 12
5 5 10 14 14 14 14 14 13 12 13 12 11 11 10 9 8 7 7 6 6 5 4 4 5 5 6 7 8 8 9 8 8 6 3 3 2 3 7 11 11 11 11
5 5 11 14 13 14 14 13 12 11 10 10 11 10 10 8 8 6 6 6 5 4 5 5 5 4 4 7 7 7 6 8 8 4 3 3 3 4 5 7 12 12 11
6 4 7 11 12 13 12 11 11 10 11 9 7 8 9 9 7 6 6 6 5 4 5 5 4 5 6 9 10 10 8 8 5 5 4 4 4 8 8 5 7 10 11
8 5 5 10 10 12 11 11 11 9 10 10 7 7 7 9 9 7 5 4 4 3 4 5 5 7 6 8 9 8 7 6 5 5 5 3 4 9 10 8 7 9 9
5 5 4 5 7 10 10 10 9 9 8 8 7 6 7 5 7 8 6 5 4 4 4 6 6 6 6 6 7 7 6 3 5 2 4 2 5 7 8 9 9 9 8
3 4 3 3 3 4 4 8 8 7 7 7 7 6 5 5 5 6 4 4 4 5 4 2 5 4 5 6 6 5 4 4 6 3 3 2 4 6 6 8 10 10 8
3 2 2 3 2 3 3 4 6 6 7 8 6 7 5 2 1 2 4 4 5 6 5 4 4 4 3 5 6 6 6 2 4 3 2 4 2 5 8 8 7 8 9
5 3 3 3 3 3 2 1 2 2 1 1 2 2 2 3 3 3 4 6 8 10 7 7 6 0 1 2 2 5 1 2 2 4 2 5 2 5 8 10 9 9 9
4 4 5 3 2 3 2 2 2 1 1 2 3 2 2 2 2 2 2 2 2 5 0 0 1 2 2 2 2 1 2 2 1 2 3 2 3 6 7 9 9 9 9
6 6 6 6 4 5 3 3 3 2 2 2 3 3 1 2 3 3 2 3 3 1 0 1 1 3 4 3 4 4 4 4 3 1 3 6 5 7 2 5 8 9 9
8 8 7 7 6 5 5 3 3 3 2 3 3 2 3 3 3 2 1 3 2 2 2 2 2 3 4 5 5 5 5 5 4 3 2 6 7 9 7 7 6 8 8
7 8 7 8 7 6 6 5 4 3 3 3 3 4 4 3 2 2 3 3 3 3 2 3 3 3 3 4 5 5 6 5 5 6 4 3 9 12 14 13 9 7 9
7 7 8 7 8 8 8 6 4 3 4 4 3 5 5 4 4 3 3 3 3 2 3 3 2 2 1 3 4 3 4 6 4 3 2 2 2 13 12 11 10 10 9
8 9 7 8 10 10 8 5 3 4 4 3 4 4 6 5 4 3 2 3 1 0 1 1 0 1 2 1 2 2 1 1 3 3 3 2 0 1 8 8 9 8 8
11 8 8 8 9 9 6 4 4 5 4 4 3 4 4 4 4 2 2 1 1 2 2 1 3 1 2 4 4 5 5 5 3 4 4 3 3 0 1 6 3 6 7
10 9 8 8 7 7 3 2 1 1 2 3 2 3 3 2 3 3 2 1 2 2 2 3 3 3 3 4 6 6 6 5 5 4 4 3 4 4 3 2 1 1 1
10 10 12 10 7 6 3 3 2 2 2 2 3 3 3 2 3 3 2 2 2 3 2 2 3 3 2 2 3 3 5 7 8 6 5 6 5 4 3 1 2 1 3
14 12 12 12 8 8 7 3 3 3 2 2 3 3 4 2 2 3 3 3 3 3 3 3 3 2 1 1 3 2 3 3 6 7 7 7 8 6 7 7 8 7 6
13 14 14 14 11 10 6 4 2 2 2 1 1 1 2 3 3 4 3 3 4 3 3 2 3 4 3 1 2 3 2 2 2 4 7 6 7 6 7 7 7 6 5
15 12 12 11 10 8 8 6 6 5 4 3 2 2 2 3 4 4 4 4 4 3 4 2 2 3 3 3 1 2 1 4 3 2 3 5 5 6 5 5 5 5 5
12 13 11 8 8 8 9 8 6 4 3 2 3 4 3 2 4 3 4 5 4 3 4 4 3 3 2 3 2 2 2 3 3 3 3 2 3 4 3 3 3 2 4
8 8 8 8 7 7 8 8 8 8 6 4 3 4 3 2 2 3 3 4 4 4 4 3 3 3 4 3 2 2 3 3 3 3 3 2 3 2 1 2 2 1 2
Wind_Direction
277 112 99 106 103 103 103 102 104 112 120 121 126 131 131 129 128 129 126 121 112 108 108 99 95 95 94 97 106 108 106 96 87 91 92 101 104 110 109 104 105 105 106
132 92 104 104 107 110 109 106 107 111 116 121 128 135 134 130 130 134 130 125 123 119 114 112 105 102 102 98 103 112 111 112 102 99 108 122 95 99 111 110 106 103 102
120 115 116 114 112 113 112 111 113 119 120 124 132 137 139 138 140 143 138 133 125 126 122 123 120 117 112 113 113 116 113 107 103 93 79 66 103 111 115 93 101 105 106
134 125 115 115 114 117 116 115 118 121 122 126 139 136 137 141 144 146 146 146 138 141 134 133 135 136 129 127 123 115 120 110 107 88 83 70 26 111 132 113 113 109 108
123 112 125 120 124 116 114 116 121 120 125 127 137 133 141 148 155 161 160 169 162 165 168 177 168 166 149 136 142 127 134 124 116 99 77 85 49 123 124 128 122 111 106
120 118 134 130 123 121 122 125 122 128 126 133 136 137 139 149 150 157 169 173 169 181 184 181 193 179 152 148 134 127 115 112 110 111 114 106 111 159 135 130 135 127 123
134 159 137 135 132 125 123 128 136 141 136 126 137 147 151 154 144 153 165 162 162 163 161 165 164 122 137 147 136 133 153 139 133 139 145 146 161 161 154 150 134 128 134
149 149 151 148 144 138 139 141 143 137 135 138 153 146 164 155 153 161 163 138 140 164 153 143 121 126 138 144 141 149 156 154 134 147 159 165 160 161 151 163 153 148 146
154 138 159 158 163 151 147 144 144 138 149 144 142 163 153 161 143 157 158 153 154 212 191 155 125 125 143 151 166 191 165 133 126 120 149 158 163 156 163 160 163 164 159
142 139 148 161 160 138 155 155 153 149 149 146 156 181 168 176 171 158 161 177 194 205 219 100 118 124 139 170 200 218 208 191 137 144 118 156 167 164 167 162 168 157 168
173 146 139 160 148 145 186 184 153 174 177 162 188 192 187 167 209 219 182 217 223 231 210 179 179 150 165 180 201 218 235 140 132 143 154 136 166 195 184 184 185 169 173
184 195 198 197 164 177 197 46 136 222 161 145 215 209 173 206 221 212 225 233 244 236 225 199 190 14 186 166 257 207 162 219 177 158 159 169 191 212 211 191 198 187 199
179 183 197 191 186 206 225 167 206 193 203 238 229 224 221 251 253 271 254 269 297 272 356 0 58 179 231 205 224 226 211 192 215 229 186 190 215 225 215 207 200 206 188
178 194 189 179 194 217 225 195 198 201 214 232 230 223 214 256 261 253 237 247 262 257 246 82 187 194 235 234 226 227 218 213 196 232 222 209 190 208 168 216 224 215 206
192 195 198 171 191 206 217 222 210 212 212 231 233 246 227 255 267 303 318 277 243 239 198 227 225 234 228 225 230 228 229 217 218 196 219 241 216 192 192 224 235 226 226
191 202 195 183 184 192 209 214 218 197 213 230 237 227 228 225 264 277 270 261 261 205 198 221 229 224 226 213 233 229 237 229 204 193 195 214 229 198 179 223 230 229 221
200 191 199 189 180 194 212 215 204 201 203 222 236 245 240 218 228 236 246 255 253 228 202 223 258 268 239 208 231 241 228 225 205 189 153 215 239 204 200 207 229 220 233
184 189 188 198 193 199 208 215 191 200 216 216 219 224 230 227 205 230 250 246 280 21 253 263 329 323 343 13 94 57 33 129 171 193 152 162 346 267 203 198 205 227 240
186 180 193 196 192 198 212 202 219 204 209 223 207 226 233 213 182 203 234 253 71 46 76 107 65 39 37 63 68 61 61 65 72 141 134 157 183 226 160 168 236 233 228
186 178 192 202 193 181 175 121 70 242 206 215 229 234 241 209 157 181 188 168 136 118 74 70 87 54 74 75 71 70 63 55 60 78 122 124 152 168 142 134 31 163 206
182 178 189 193 184 158 158 154 186 216 213 181 181 223 194 212 174 177 145 171 139 112 96 104 95 82 73 93 86 49 54 57 56 51 65 80 83 92 112 73 45 12 86
185 188 186 199 178 182 189 163 158 165 211 158 159 187 189 139 193 163 187 194 167 126 114 110 128 127 95 31 103 69 54 27 42 49 70 81 81 89 84 81 83 75 69
183 189 190 192 181 180 175 122 84 92 70 93 310 351 207 219 199 173 191 171 148 138 138 132 142 150 137 37 95 127 122 119 97 15 49 69 78 81 84 85 78 75 70
197 192 195 185 180 179 165 174 172 179 161 182 143 176 193 225 201 179 187 169 158 142 145 164 150 138 130 143 105 61 44 136 141 128 51 47 71 86 89 77 66 58 51
183 192 191 177 180 176 175 191 184 162 153 134 127 156 182 207 217 196 191 159 168 165 151 146 132 131 120 135 156 143 106 67 73 135 149 119 74 55 74 98 90 60 55
172 161 167 174 182 185 178 189 185 184 169 154 161 170 221 207 238 207 194 176 179 169 150 142 132 140 141 131 146 170 175 159 174 139 113 116 121 46 107 99 78 49 40